| time (UTC) | temp F | wind direction | speed knots | gust knots | rain 1hr in | rain 24hr in | rain mn in | humidity % | barometer mb |
| 20260508053119 | 47 | 20 | 6.1 | 0.0 | 0.00 | 0.00 | 0.00 | 89 | 1022.7 |
| 20260508052644 | 47 | 37 | 2.6 | 0.0 | 0.00 | 0.00 | 0.00 | 91 | 1022.7 |
| 20260508052124 | 47 | 36 | 3.5 | 0.0 | 0.00 | 0.00 | 0.00 | 94 | 1022.6 |
| 20260508051605 | 47 | 40 | 5.2 | 0.0 | 0.00 | 0.00 | 0.00 | 95 | 1022.7 |
| 20260508051131 | 46 | 64 | 4.3 | 0.0 | 0.00 | 0.00 | 0.00 | 97 | 1022.7 |
| 20260508050612 | 46 | 11 | 2.6 | 0.0 | 0.00 | 0.00 | 0.00 | 100 | 1022.7 |
| 20260508050137 | 46 | 12 | 4.3 | 0.0 | 0.00 | 0.00 | 0.00 | 100 | 1022.8 |
| 20260508045618 | 46 | 12 | 3.5 | 0.0 | 0.00 | 0.00 | 0.00 | 100 | 1022.8 |
| 20260508045144 | 46 | 15 | 2.6 | 0.0 | 0.00 | 0.00 | 0.00 | 100 | 1022.8 |
| 20260508044624 | 46 | 3 | 3.5 | 0.0 | 0.00 | 0.00 | 0.00 | 100 | 1022.7 |
| 20260508044104 | 45 | 328 | 2.6 | 0.0 | 0.00 | 0.00 | 0.00 | 100 | 1022.7 |
| 20260508043630 | 45 | 17 | 6.1 | 0.0 | 0.00 | 0.00 | 0.00 | 100 | 1022.6 |
| 20260508043110 | 46 | 42 | 2.6 | 0.0 | 0.00 | 0.00 | 0.00 | 100 | 1022.6 |
| 20260508042636 | 45 | 320 | 4.3 | 0.0 | 0.00 | 0.00 | 0.00 | 100 | 1022.6 |
| 20260508042116 | 45 | 25 | 3.5 | 0.0 | 0.00 | 0.00 | 0.00 | 100 | 1022.5 |
| 20260508041643 | 45 | 21 | 5.2 | 0.0 | 0.00 | 0.00 | 0.00 | 100 | 1022.5 |
| 20260508041124 | 45 | 36 | 3.5 | 0.0 | 0.00 | 0.00 | 0.00 | 100 | 1022.5 |
| 20260508040603 | 45 | 20 | 5.2 | 0.0 | 0.00 | 0.00 | 0.00 | 100 | 1022.4 |
| 20260508040129 | 45 | 29 | 3.5 | 0.0 | 0.00 | 0.00 | 0.00 | 100 | 1022.5 |
| 20260508035610 | 44 | 17 | 2.6 | 0.0 | 0.00 | 0.00 | 0.00 | 100 | 1022.5 |
| 20260508035137 | 44 | 348 | 2.6 | 0.0 | 0.00 | 0.00 | 0.00 | 100 | 1022.5 |
| 20260508034616 | 44 | 9 | 3.5 | 0.0 | 0.00 | 0.00 | 0.00 | 100 | 1022.5 |
| 20260508034143 | 44 | 13 | 2.6 | 0.0 | 0.00 | 0.00 | 0.00 | 100 | 1022.4 |
| 20260508033623 | 43 | 358 | 3.5 | 0.0 | 0.00 | 0.00 | 0.00 | 100 | 1022.4 |
| 20260508033103 | 43 | 15 | 3.5 | 0.0 | 0.00 | 0.00 | 0.00 | 100 | 1022.3 |
| 20260508032629 | 43 | 358 | 2.6 | 0.0 | 0.00 | 0.00 | 0.00 | 100 | 1022.3 |
| 20260508032110 | 43 | 5 | 2.6 | 0.0 | 0.00 | 0.00 | 0.00 | 100 | 1022.2 |
| 20260508031636 | 43 | 9 | 3.5 | 0.0 | 0.00 | 0.00 | 0.00 | 100 | 1022.2 |
| 20260508031116 | 43 | 0 | 3.5 | 0.0 | 0.00 | 0.00 | 0.00 | 100 | 1022.1 |
| 20260508030643 | 43 | 354 | 3.5 | 0.0 | 0.00 | 0.00 | 0.00 | 100 | 1022.1 |
| 20260508030123 | 43 | 344 | 2.6 | 0.0 | 0.00 | 0.00 | 0.00 | 100 | 1022.1 |
| 20260508025603 | 43 | 19 | 5.2 | 0.0 | 0.00 | 0.00 | 0.00 | 100 | 1022.0 |
| 20260508025129 | 43 | 21 | 4.3 | 0.0 | 0.00 | 0.00 | 0.00 | 100 | 1022.0 |
| 20260508024609 | 43 | 9 | 5.2 | 0.0 | 0.00 | 0.00 | 0.00 | 100 | 1022.0 |
| 20260508024136 | 43 | 19 | 5.2 | 0.0 | 0.00 | 0.00 | 0.00 | 100 | 1022.0 |
| 20260508023616 | 43 | 11 | 6.1 | 0.0 | 0.00 | 0.00 | 0.00 | 100 | 1022.0 |
| 20260508023141 | 43 | 10 | 4.3 | 0.0 | 0.00 | 0.00 | 0.00 | 100 | 1022.0 |
| 20260508022622 | 43 | 23 | 4.3 | 0.0 | 0.00 | 0.00 | 0.00 | 100 | 1022.0 |
| 20260508022102 | 43 | 18 | 4.3 | 0.0 | 0.00 | 0.00 | 0.00 | 100 | 1022.0 |
| 20260508021628 | 43 | 29 | 3.5 | 0.0 | 0.00 | 0.00 | 0.00 | 100 | 1022.0 |
| 20260508021108 | 43 | 13 | 4.3 | 0.0 | 0.00 | 0.00 | 0.00 | 100 | 1021.9 |
| 20260508020635 | 43 | 26 | 4.3 | 0.0 | 0.00 | 0.00 | 0.00 | 100 | 1022.0 |
| 20260508020115 | 43 | 353 | 2.6 | 0.0 | 0.00 | 0.00 | 0.00 | 100 | 1022.0 |
| 20260508015641 | 43 | 35 | 3.5 | 0.0 | 0.00 | 0.00 | 0.00 | 100 | 1021.9 |
| 20260508015122 | 43 | 7 | 4.3 | 0.0 | 0.00 | 0.00 | 0.00 | 100 | 1021.9 |
| 20260508014602 | 43 | 7 | 1.7 | 0.0 | 0.00 | 0.00 | 0.00 | 100 | 1021.9 |
| 20260508014128 | 43 | 0 | 3.5 | 0.0 | 0.00 | 0.00 | 0.00 | 100 | 1021.9 |
| 20260508013609 | 43 | 354 | 3.5 | 0.0 | 0.00 | 0.00 | 0.00 | 100 | 1021.9 |
| 20260508013134 | 43 | 13 | 3.5 | 0.0 | 0.00 | 0.00 | 0.00 | 100 | 1021.9 |
| 20260508012614 | 43 | 7 | 1.7 | 0.0 | 0.00 | 0.00 | 0.00 | 100 | 1021.9 |
| 20260508012141 | 43 | 293 | 2.6 | 0.0 | 0.00 | 0.00 | 0.00 | 100 | 1022.0 |
| 20260508011620 | 43 | 350 | 2.6 | 0.0 | 0.00 | 0.00 | 0.00 | 100 | 1022.0 |
| 20260508011101 | 43 | 18 | 3.5 | 0.0 | 0.00 | 0.00 | 0.00 | 100 | 1021.9 |
| 20260508010627 | 43 | 20 | 5.2 | 0.0 | 0.00 | 0.00 | 0.00 | 100 | 1021.9 |
| 20260508010107 | 43 | 21 | 2.6 | 0.0 | 0.00 | 0.00 | 0.00 | 100 | 1021.9 |
| 20260508005634 | 43 | 14 | 2.6 | 0.0 | 0.00 | 0.00 | 0.00 | 100 | 1021.9 |
| 20260508005113 | 43 | 352 | 3.5 | 0.0 | 0.00 | 0.00 | 0.00 | 100 | 1021.8 |
| 20260508004641 | 43 | 16 | 5.2 | 0.0 | 0.00 | 0.00 | 0.00 | 100 | 1021.8 |
| 20260508004121 | 43 | 343 | 2.6 | 0.0 | 0.00 | 0.00 | 0.00 | 100 | 1021.8 |
| 20260508003601 | 43 | 29 | 2.6 | 0.0 | 0.00 | 0.00 | 0.00 | 100 | 1021.8 |
| 20260508003128 | 43 | 22 | 3.5 | 0.0 | 0.00 | 0.00 | 0.00 | 100 | 1021.8 |
| 20260508002606 | 43 | 347 | 3.5 | 0.0 | 0.00 | 0.00 | 0.00 | 100 | 1021.8 |
| 20260508002134 | 43 | 12 | 4.3 | 0.0 | 0.00 | 0.00 | 0.00 | 100 | 1021.7 |
| 20260508001614 | 43 | 11 | 3.5 | 0.0 | 0.00 | 0.00 | 0.00 | 100 | 1021.7 |
| 20260508001140 | 43 | 21 | 4.3 | 0.0 | 0.00 | 0.00 | 0.00 | 100 | 1021.7 |
| 20260508000620 | 43 | 20 | 2.6 | 0.0 | 0.00 | 0.00 | 0.00 | 100 | 1021.7 |
| 20260508000101 | 43 | 337 | 1.7 | 0.0 | 0.00 | 0.00 | 0.00 | 100 | 1021.7 |
| 20260507235626 | 43 | 306 | 2.6 | 0.0 | 0.00 | 0.00 | 0.00 | 100 | 1021.7 |
| 20260507235107 | 43 | 4 | 5.2 | 0.0 | 0.00 | 0.00 | 0.00 | 100 | 1021.6 |
| 20260507234633 | 43 | 4 | 2.6 | 0.0 | 0.00 | 0.00 | 0.00 | 100 | 1021.5 |
| 20260507234113 | 43 | 296 | 2.6 | 0.0 | 0.00 | 0.00 | 0.00 | 100 | 1021.6 |
| 20260507233639 | 43 | 287 | 4.3 | 0.0 | 0.00 | 0.00 | 0.00 | 100 | 1021.6 |
| 20260507233119 | 43 | 23 | 2.6 | 0.0 | 0.00 | 0.00 | 0.00 | 100 | 1021.6 |
| 20260507232646 | 43 | 3 | 3.5 | 0.0 | 0.00 | 0.00 | 0.00 | 100 | 1021.5 |
| 20260507232125 | 43 | 4 | 3.5 | 0.0 | 0.00 | 0.00 | 0.00 | 100 | 1021.5 |
| 20260507231606 | 43 | 5 | 3.5 | 0.0 | 0.00 | 0.00 | 0.00 | 100 | 1021.5 |
| 20260507231132 | 43 | 23 | 5.2 | 0.0 | 0.00 | 0.00 | 0.00 | 100 | 1021.3 |
| 20260507230612 | 43 | 24 | 4.3 | 0.0 | 0.00 | 0.00 | 0.00 | 100 | 1021.2 |
| 20260507230139 | 43 | 312 | 3.5 | 0.0 | 0.00 | 0.00 | 0.00 | 100 | 1021.2 |
| 20260507225619 | 43 | 17 | 6.1 | 0.0 | 0.00 | 0.00 | 0.00 | 100 | 1021.2 |
| 20260507225145 | 43 | 355 | 3.5 | 0.0 | 0.00 | 0.00 | 0.00 | 100 | 1021.1 |
| 20260507224625 | 43 | 0 | 5.2 | 0.0 | 0.00 | 0.00 | 0.00 | 100 | 1021.3 |
| 20260507224106 | 43 | 19 | 2.6 | 0.0 | 0.00 | 0.00 | 0.00 | 100 | 1021.3 |
| 20260507223631 | 43 | 324 | 3.5 | 0.0 | 0.00 | 0.00 | 0.00 | 100 | 1021.3 |
| 20260507223112 | 43 | 9 | 4.3 | 0.0 | 0.00 | 0.00 | 0.00 | 100 | 1021.3 |
| 20260507222638 | 43 | 14 | 3.5 | 0.0 | 0.00 | 0.00 | 0.00 | 100 | 1021.3 |
| 20260507222118 | 43 | 339 | 3.5 | 0.0 | 0.00 | 0.00 | 0.00 | 100 | 1021.3 |
| 20260507221644 | 43 | 311 | 2.6 | 0.0 | 0.00 | 0.00 | 0.00 | 100 | 1021.5 |
| 20260507221125 | 43 | 282 | 2.6 | 0.0 | 0.00 | 0.00 | 0.00 | 100 | 1021.6 |
| 20260507220605 | 43 | 292 | 2.6 | 0.0 | 0.00 | 0.00 | 0.00 | 100 | 1021.5 |
| 20260507220131 | 43 | 298 | 3.5 | 0.0 | 0.00 | 0.00 | 0.00 | 100 | 1021.4 |
| 20260507215611 | 43 | 335 | 2.6 | 0.0 | 0.00 | 0.00 | 0.00 | 100 | 1021.4 |
| 20260507215138 | 43 | 292 | 5.2 | 0.0 | 0.00 | 0.00 | 0.00 | 100 | 1021.4 |
| 20260507214618 | 43 | 285 | 5.2 | 0.0 | 0.00 | 0.00 | 0.00 | 100 | 1021.4 |
| 20260507214144 | 43 | 8 | 3.5 | 0.0 | 0.00 | 0.00 | 0.00 | 100 | 1021.4 |
| 20260507213625 | 43 | 10 | 4.3 | 0.0 | 0.00 | 0.00 | 0.00 | 100 | 1021.4 |
| 20260507213104 | 43 | 10 | 2.6 | 0.0 | 0.00 | 0.00 | 0.00 | 100 | 1021.4 |
| 20260507212631 | 43 | 334 | 3.5 | 0.0 | 0.00 | 0.00 | 0.00 | 100 | 1021.4 |
| 20260507212111 | 43 | 340 | 1.7 | 0.0 | 0.00 | 0.00 | 0.00 | 100 | 1021.4 |
| 20260507211637 | 43 | 341 | 1.7 | 0.0 | 0.00 | 0.00 | 0.00 | 100 | 1021.4 |
| 20260507211118 | 43 | 286 | 3.5 | 0.0 | 0.00 | 0.00 | 0.00 | 100 | 1021.3 |
| 20260507210643 | 43 | 293 | 4.3 | 0.0 | 0.00 | 0.00 | 0.00 | 100 | 1021.2 |
| 20260507210123 | 43 | 309 | 3.5 | 0.0 | 0.00 | 0.00 | 0.00 | 100 | 1021.2 |
| 20260507205604 | 43 | 286 | 3.5 | 0.0 | 0.00 | 0.00 | 0.00 | 100 | 1021.1 |
| 20260507205130 | 43 | 309 | 3.5 | 0.0 | 0.00 | 0.00 | 0.00 | 100 | 1021.0 |
| 20260507204610 | 42 | 328 | 1.7 | 0.0 | 0.00 | 0.00 | 0.00 | 100 | 1020.9 |
| 20260507204136 | 42 | 354 | 4.3 | 0.0 | 0.00 | 0.00 | 0.00 | 100 | 1020.9 |
| 20260507203617 | 42 | 8 | 5.2 | 0.0 | 0.00 | 0.00 | 0.00 | 100 | 1020.8 |
| 20260507203142 | 42 | 37 | 2.6 | 0.0 | 0.00 | 0.00 | 0.00 | 100 | 1020.8 |
| 20260507202623 | 42 | 11 | 3.5 | 0.0 | 0.00 | 0.00 | 0.00 | 100 | 1020.7 |
| 20260507202103 | 42 | 291 | 3.5 | 0.0 | 0.00 | 0.00 | 0.00 | 100 | 1020.6 |
| 20260507201630 | 42 | 321 | 4.3 | 0.0 | 0.00 | 0.00 | 0.00 | 100 | 1020.7 |
| 20260507201109 | 42 | 278 | 5.2 | 0.0 | 0.00 | 0.00 | 0.00 | 100 | 1020.7 |
| 20260507200635 | 42 | 323 | 5.2 | 0.0 | 0.00 | 0.00 | 0.00 | 100 | 1020.6 |
| 20260507200116 | 42 | 347 | 4.3 | 0.0 | 0.00 | 0.00 | 0.00 | 100 | 1020.6 |
| 20260507195641 | 42 | 284 | 5.2 | 0.0 | 0.00 | 0.00 | 0.00 | 100 | 1020.6 |
| 20260507195122 | 42 | 284 | 4.3 | 0.0 | 0.00 | 0.00 | 0.00 | 100 | 1020.6 |
| 20260507194602 | 42 | 301 | 6.1 | 0.0 | 0.00 | 0.00 | 0.00 | 100 | 1020.5 |
| 20260507194128 | 42 | 329 | 5.2 | 0.0 | 0.00 | 0.00 | 0.00 | 100 | 1020.4 |
| 20260507193608 | 42 | 2 | 2.6 | 0.0 | 0.00 | 0.00 | 0.00 | 100 | 1020.4 |
| 20260507193134 | 42 | 304 | 5.2 | 0.0 | 0.00 | 0.00 | 0.00 | 100 | 1020.3 |
| 20260507192615 | 42 | 310 | 4.3 | 0.0 | 0.00 | 0.00 | 0.00 | 100 | 1020.2 |
| 20260507192141 | 42 | 298 | 5.2 | 0.0 | 0.00 | 0.00 | 0.00 | 100 | 1019.9 |
| 20260507191621 | 43 | 308 | 4.3 | 0.0 | 0.00 | 0.00 | 0.00 | 100 | 1019.9 |
| 20260507191101 | 43 | 287 | 5.2 | 0.0 | 0.00 | 0.00 | 0.00 | 100 | 1019.9 |
| 20260507190628 | 43 | 283 | 5.2 | 0.0 | 0.00 | 0.00 | 0.00 | 100 | 1019.9 |
| 20260507190107 | 43 | 320 | 5.2 | 0.0 | 0.00 | 0.00 | 0.00 | 100 | 1019.9 |
| 20260507185634 | 43 | 281 | 6.1 | 0.0 | 0.00 | 0.00 | 0.00 | 100 | 1019.9 |
| 20260507185115 | 43 | 286 | 6.1 | 0.0 | 0.00 | 0.00 | 0.00 | 100 | 1019.9 |
| 20260507184640 | 43 | 290 | 6.1 | 0.0 | 0.00 | 0.00 | 0.00 | 100 | 1019.8 |
| 20260507184121 | 44 | 296 | 6.1 | 0.0 | 0.00 | 0.00 | 0.00 | 100 | 1019.8 |
| 20260507183601 | 44 | 297 | 3.5 | 0.0 | 0.00 | 0.00 | 0.00 | 100 | 1019.9 |
| 20260507183127 | 44 | 315 | 4.3 | 0.0 | 0.00 | 0.00 | 0.00 | 100 | 1019.8 |
| 20260507182608 | 44 | 337 | 5.2 | 0.0 | 0.00 | 0.00 | 0.00 | 99 | 1019.8 |
| 20260507182133 | 44 | 318 | 3.5 | 0.0 | 0.00 | 0.00 | 0.00 | 97 | 1019.7 |
| 20260507181614 | 44 | 4 | 3.5 | 0.0 | 0.00 | 0.00 | 0.00 | 96 | 1019.8 |
| 20260507181140 | 45 | 0 | 2.6 | 0.0 | 0.00 | 0.00 | 0.00 | 94 | 1019.7 |
| 20260507180621 | 45 | 11 | 4.3 | 0.0 | 0.00 | 0.00 | 0.00 | 93 | 1019.7 |
| 20260507175627 | 46 | 17 | 4.3 | 0.0 | 0.00 | 0.00 | 0.00 | 89 | 1019.6 |
| 20260507175107 | 47 | 21 | 5.2 | 0.0 | 0.00 | 0.00 | 0.00 | 85 | 1019.5 |
| 20260507174633 | 47 | 24 | 3.5 | 0.0 | 0.00 | 0.00 | 0.00 | 84 | 1019.5 |
| 20260507174113 | 48 | 4 | 3.5 | 0.0 | 0.00 | 0.00 | 0.00 | 83 | 1019.5 |
| 20260507173640 | 48 | 7 | 3.5 | 0.0 | 0.00 | 0.00 | 0.00 | 82 | 1019.4 |
| 20260507173120 | 48 | 7 | 3.5 | 0.0 | 0.00 | 0.00 | 0.00 | 81 | 1019.4 |
| 20260507172645 | 48 | 332 | 4.3 | 0.0 | 0.00 | 0.00 | 0.00 | 83 | 1019.4 |
| 20260507172126 | 47 | 24 | 3.5 | 0.0 | 0.00 | 0.00 | 0.00 | 85 | 1019.4 |
| 20260507171606 | 48 | 3 | 4.3 | 0.0 | 0.00 | 0.00 | 0.00 | 83 | 1019.3 |
| 20260507171132 | 48 | 6 | 3.5 | 0.0 | 0.00 | 0.00 | 0.00 | 85 | 1019.3 |
| 20260507170613 | 47 | 14 | 3.5 | 0.0 | 0.00 | 0.00 | 0.00 | 86 | 1019.3 |
| 20260507170139 | 47 | 20 | 4.3 | 0.0 | 0.00 | 0.00 | 0.00 | 86 | 1019.3 |
| 20260507165619 | 47 | 25 | 6.1 | 0.0 | 0.00 | 0.00 | 0.00 | 87 | 1019.3 |
| 20260507165145 | 47 | 10 | 5.2 | 0.0 | 0.00 | 0.00 | 0.00 | 86 | 1019.4 |
| 20260507164626 | 47 | 16 | 7.0 | 0.0 | 0.00 | 0.00 | 0.00 | 86 | 1019.4 |
| 20260507164105 | 47 | 332 | 1.7 | 0.0 | 0.00 | 0.00 | 0.00 | 87 | 1019.4 |
| 20260507163631 | 47 | 8 | 2.6 | 0.0 | 0.00 | 0.00 | 0.00 | 86 | 1019.3 |
| 20260507163112 | 47 | 41 | 4.3 | 0.0 | 0.00 | 0.00 | 0.00 | 86 | 1019.3 |
| 20260507162639 | 47 | 17 | 6.1 | 0.0 | 0.00 | 0.00 | 0.00 | 85 | 1019.2 |
| 20260507162118 | 47 | 13 | 4.3 | 0.0 | 0.00 | 0.00 | 0.00 | 85 | 1019.2 |
| 20260507161645 | 47 | 348 | 5.2 | 0.0 | 0.00 | 0.00 | 0.00 | 84 | 1019.1 |
| 20260507161126 | 48 | 27 | 4.3 | 0.0 | 0.00 | 0.00 | 0.00 | 83 | 1019.1 |
| 20260507160605 | 47 | 22 | 3.5 | 0.0 | 0.00 | 0.00 | 0.00 | 86 | 1019.1 |
| 20260507160132 | 47 | 4 | 4.3 | 0.0 | 0.00 | 0.00 | 0.00 | 86 | 1019.2 |
| 20260507155612 | 47 | 329 | 3.5 | 0.0 | 0.00 | 0.00 | 0.00 | 88 | 1019.3 |
| 20260507155138 | 46 | 336 | 5.2 | 0.0 | 0.00 | 0.00 | 0.00 | 88 | 1019.2 |
| 20260507154619 | 46 | 20 | 5.2 | 0.0 | 0.00 | 0.00 | 0.00 | 88 | 1019.2 |
| 20260507154144 | 46 | 10 | 5.2 | 0.0 | 0.00 | 0.00 | 0.00 | 90 | 1019.1 |
| 20260507153625 | 47 | 19 | 5.2 | 0.0 | 0.00 | 0.00 | 0.00 | 91 | 1019.1 |
| 20260507153105 | 46 | 39 | 3.5 | 0.0 | 0.00 | 0.00 | 0.00 | 94 | 1019.1 |
| 20260507152634 | 46 | 6 | 4.3 | 0.0 | 0.00 | 0.00 | 0.00 | 94 | 1019.1 |
| 20260507152111 | 46 | 19 | 7.0 | 0.0 | 0.00 | 0.00 | 0.00 | 94 | 1019.1 |
| 20260507151638 | 46 | 2 | 4.3 | 0.0 | 0.00 | 0.00 | 0.00 | 94 | 1019.1 |
| 20260507151118 | 46 | 8 | 6.1 | 0.0 | 0.00 | 0.00 | 0.00 | 93 | 1019.1 |
| 20260507150643 | 46 | 18 | 3.5 | 0.0 | 0.00 | 0.00 | 0.00 | 94 | 1019.1 |
| 20260507150125 | 46 | 26 | 5.2 | 0.0 | 0.00 | 0.00 | 0.00 | 94 | 1019.2 |
| 20260507145605 | 46 | 28 | 6.1 | 0.0 | 0.00 | 0.00 | 0.00 | 93 | 1019.0 |
| 20260507145131 | 46 | 44 | 5.2 | 0.0 | 0.00 | 0.00 | 0.00 | 92 | 1019.0 |
| 20260507144611 | 46 | 35 | 4.3 | 0.0 | 0.00 | 0.00 | 0.00 | 93 | 1018.8 |
| 20260507144136 | 47 | 16 | 7.8 | 0.0 | 0.00 | 0.00 | 0.00 | 91 | 1018.8 |
| 20260507143618 | 47 | 23 | 6.1 | 0.0 | 0.00 | 0.00 | 0.00 | 91 | 1018.8 |
| 20260507143143 | 47 | 22 | 3.5 | 0.0 | 0.00 | 0.00 | 0.00 | 93 | 1018.6 |
| 20260507142624 | 47 | 31 | 4.3 | 0.0 | 0.00 | 0.00 | 0.00 | 93 | 1018.6 |
| 20260507142104 | 47 | 22 | 4.3 | 0.0 | 0.00 | 0.00 | 0.00 | 92 | 1018.5 |
| 20260507141629 | 47 | 25 | 7.0 | 0.0 | 0.00 | 0.00 | 0.00 | 92 | 1018.5 |
| 20260507141110 | 48 | 56 | 6.1 | 0.0 | 0.00 | 0.00 | 0.00 | 90 | 1018.4 |
| 20260507140636 | 48 | 53 | 6.1 | 0.0 | 0.00 | 0.00 | 0.00 | 91 | 1018.5 |
| 20260507140116 | 47 | 20 | 1.7 | 0.0 | 0.00 | 0.00 | 0.00 | 93 | 1018.6 |
| 20260507135643 | 47 | 34 | 5.2 | 0.0 | 0.00 | 0.00 | 0.00 | 93 | 1018.6 |
| 20260507135122 | 47 | 17 | 9.6 | 0.0 | 0.00 | 0.00 | 0.00 | 91 | 1018.4 |
| 20260507134603 | 49 | 9 | 7.8 | 0.0 | 0.00 | 0.00 | 0.00 | 88 | 1018.5 |
| 20260507134129 | 48 | 38 | 6.1 | 0.0 | 0.00 | 0.00 | 0.00 | 91 | 1018.5 |
| 20260507133609 | 48 | 10 | 4.3 | 0.0 | 0.00 | 0.00 | 0.00 | 91 | 1018.6 |
| 20260507133136 | 48 | 358 | 5.2 | 0.0 | 0.00 | 0.00 | 0.00 | 92 | 1018.5 |
| 20260507132616 | 47 | 19 | 5.2 | 0.0 | 0.00 | 0.00 | 0.00 | 96 | 1018.5 |
| 20260507132143 | 47 | 10 | 5.2 | 0.0 | 0.00 | 0.00 | 0.00 | 96 | 1018.6 |
| 20260507131623 | 47 | 8 | 8.7 | 0.0 | 0.00 | 0.00 | 0.00 | 94 | 1018.5 |
| 20260507131102 | 47 | 36 | 3.5 | 0.0 | 0.00 | 0.00 | 0.00 | 96 | 1018.3 |
| 20260507130630 | 46 | 20 | 5.2 | 0.0 | 0.00 | 0.00 | 0.00 | 98 | 1018.4 |
| 20260507130110 | 47 | 24 | 11.3 | 0.0 | 0.00 | 0.00 | 0.00 | 96 | 1018.3 |
| 20260507125635 | 47 | 19 | 7.8 | 0.0 | 0.00 | 0.00 | 0.00 | 97 | 1018.3 |
| 20260507125116 | 46 | 11 | 9.6 | 0.0 | 0.00 | 0.00 | 0.00 | 98 | 1018.3 |
| 20260507124642 | 46 | 42 | 5.2 | 0.0 | 0.00 | 0.00 | 0.00 | 98 | 1018.2 |
| 20260507124122 | 47 | 13 | 5.2 | 0.0 | 0.00 | 0.00 | 0.00 | 98 | 1018.1 |
| 20260507123603 | 46 | 41 | 7.8 | 0.0 | 0.00 | 0.00 | 0.00 | 99 | 1018.1 |
| 20260507123129 | 46 | 346 | 5.2 | 0.0 | 0.00 | 0.00 | 0.00 | 97 | 1018.0 |
| 20260507122611 | 47 | 34 | 8.7 | 0.0 | 0.00 | 0.00 | 0.00 | 94 | 1018.0 |
| 20260507122135 | 48 | 13 | 8.7 | 0.0 | 0.00 | 0.00 | 0.00 | 93 | 1017.9 |
| 20260507121615 | 48 | 51 | 6.1 | 0.0 | 0.00 | 0.00 | 0.00 | 94 | 1017.7 |
| 20260507121141 | 48 | 34 | 5.2 | 0.0 | 0.00 | 0.00 | 0.00 | 96 | 1017.6 |
| 20260507120621 | 47 | 12 | 5.2 | 0.0 | 0.00 | 0.00 | 0.00 | 96 | 1017.6 |
| 20260507115628 | 48 | 7 | 4.3 | 0.0 | 0.00 | 0.00 | 0.00 | 95 | 1017.5 |
| 20260507115109 | 47 | 41 | 8.7 | 0.0 | 0.00 | 0.00 | 0.00 | 95 | 1017.6 |
| 20260507114634 | 48 | 19 | 11.3 | 0.0 | 0.00 | 0.00 | 0.00 | 93 | 1017.5 |
| 20260507114116 | 48 | 5 | 7.0 | 0.0 | 0.00 | 0.00 | 0.00 | 93 | 1017.5 |
| 20260507113641 | 48 | 40 | 7.0 | 0.0 | 0.00 | 0.00 | 0.00 | 92 | 1017.5 |
| 20260507113121 | 48 | 25 | 13.9 | 0.0 | 0.00 | 0.00 | 0.00 | 91 | 1017.4 |
| 20260507112602 | 48 | 44 | 5.2 | 0.0 | 0.00 | 0.00 | 0.00 | 94 | 1017.3 |
| 20260507112127 | 48 | 18 | 13.0 | 0.0 | 0.00 | 0.00 | 0.00 | 91 | 1017.3 |
| 20260507111607 | 49 | 28 | 6.1 | 0.0 | 0.00 | 0.00 | 0.00 | 90 | 1017.4 |
| 20260507111134 | 49 | 18 | 7.8 | 0.0 | 0.00 | 0.00 | 0.00 | 89 | 1017.3 |
| 20260507110614 | 49 | 346 | 7.0 | 0.0 | 0.00 | 0.00 | 0.00 | 88 | 1017.3 |
| 20260507110141 | 49 | 34 | 6.1 | 0.0 | 0.00 | 0.00 | 0.00 | 89 | 1017.4 |
| 20260507105621 | 50 | 23 | 11.3 | 0.0 | 0.00 | 0.00 | 0.00 | 87 | 1017.3 |
| 20260507105101 | 49 | 40 | 8.7 | 0.0 | 0.00 | 0.00 | 0.00 | 89 | 1017.3 |
| 20260507104627 | 49 | 16 | 11.3 | 0.0 | 0.00 | 0.00 | 0.00 | 88 | 1017.4 |
| 20260507104107 | 49 | 53 | 4.3 | 0.0 | 0.00 | 0.00 | 0.00 | 90 | 1017.3 |
| 20260507103633 | 48 | 3 | 5.2 | 0.0 | 0.00 | 0.00 | 0.00 | 91 | 1017.3 |
| 20260507103113 | 48 | 9 | 7.8 | 0.0 | 0.00 | 0.00 | 0.00 | 90 | 1017.1 |
| 20260507102640 | 48 | 16 | 4.3 | 0.0 | 0.00 | 0.00 | 0.00 | 90 | 1017.0 |
| 20260507102120 | 48 | 23 | 11.3 | 0.0 | 0.00 | 0.00 | 0.00 | 91 | 1016.8 |
| 20260507101646 | 48 | 15 | 6.1 | 0.0 | 0.00 | 0.00 | 0.00 | 92 | 1016.9 |
| 20260507101127 | 48 | 33 | 6.1 | 0.0 | 0.00 | 0.00 | 0.00 | 94 | 1016.8 |
| 20260507100607 | 48 | 24 | 8.7 | 0.0 | 0.00 | 0.00 | 0.00 | 95 | 1016.8 |
| 20260507100133 | 48 | 358 | 5.2 | 0.0 | 0.00 | 0.00 | 0.00 | 96 | 1016.6 |
| 20260507095614 | 47 | 9 | 7.0 | 0.0 | 0.00 | 0.00 | 0.00 | 100 | 1016.6 |
| 20260507095140 | 46 | 25 | 9.6 | 0.0 | 0.00 | 0.00 | 0.00 | 100 | 1016.5 |
| 20260507094620 | 46 | 326 | 5.2 | 0.0 | 0.00 | 0.00 | 0.00 | 100 | 1016.4 |
| 20260507094100 | 46 | 10 | 9.6 | 0.0 | 0.00 | 0.00 | 0.00 | 100 | 1016.4 |
| 20260507093627 | 46 | 16 | 10.4 | 0.0 | 0.00 | 0.00 | 0.00 | 100 | 1016.4 |
| 20260507093107 | 46 | 2 | 7.8 | 0.0 | 0.00 | 0.00 | 0.00 | 100 | 1016.3 |
| 20260507092632 | 46 | 308 | 7.8 | 0.0 | 0.00 | 0.00 | 0.00 | 100 | 1016.3 |
| 20260507092113 | 46 | 29 | 7.0 | 0.0 | 0.00 | 0.00 | 0.00 | 100 | 1016.3 |
| 20260507091638 | 46 | 22 | 7.8 | 0.0 | 0.00 | 0.00 | 0.00 | 100 | 1016.2 |
| 20260507091119 | 47 | 33 | 5.2 | 0.0 | 0.00 | 0.00 | 0.00 | 100 | 1016.3 |
| 20260507090645 | 46 | 342 | 8.7 | 0.0 | 0.00 | 0.00 | 0.00 | 100 | 1016.1 |
| 20260507090125 | 47 | 19 | 8.7 | 0.0 | 0.00 | 0.00 | 0.00 | 100 | 1016.1 |
| 20260507085606 | 47 | 23 | 7.8 | 0.0 | 0.00 | 0.00 | 0.00 | 100 | 1015.9 |
| 20260507085132 | 47 | 13 | 6.1 | 0.0 | 0.00 | 0.00 | 0.00 | 100 | 1015.9 |
| 20260507084612 | 46 | 284 | 7.8 | 0.0 | 0.00 | 0.00 | 0.00 | 100 | 1015.9 |
| 20260507084138 | 46 | 12 | 9.6 | 0.0 | 0.00 | 0.00 | 0.00 | 100 | 1015.8 |
| 20260507083618 | 46 | 7 | 6.1 | 0.0 | 0.00 | 0.00 | 0.00 | 100 | 1015.8 |
| 20260507083144 | 46 | 10 | 6.1 | 0.0 | 0.00 | 0.00 | 0.00 | 100 | 1015.8 |
| 20260507082625 | 46 | 12 | 6.1 | 0.0 | 0.00 | 0.00 | 0.00 | 100 | 1015.8 |
| 20260507082105 | 46 | 326 | 5.2 | 0.0 | 0.00 | 0.00 | 0.00 | 100 | 1015.8 |
| 20260507081630 | 46 | 354 | 7.8 | 0.0 | 0.00 | 0.00 | 0.00 | 100 | 1015.8 |
| 20260507081111 | 46 | 24 | 6.1 | 0.0 | 0.00 | 0.00 | 0.00 | 100 | 1015.6 |
| 20260507080639 | 45 | 2 | 7.0 | 0.0 | 0.00 | 0.00 | 0.00 | 100 | 1015.6 |
| 20260507080118 | 45 | 23 | 8.7 | 0.0 | 0.00 | 0.00 | 0.00 | 100 | 1015.5 |
| 20260507075644 | 45 | 12 | 4.3 | 0.0 | 0.00 | 0.00 | 0.00 | 100 | 1015.4 |
| 20260507075125 | 44 | 17 | 3.5 | 0.0 | 0.00 | 0.00 | 0.00 | 100 | 1015.4 |
| 20260507074604 | 44 | 3 | 9.6 | 0.0 | 0.00 | 0.00 | 0.00 | 100 | 1015.5 |
| 20260507074132 | 45 | 18 | 9.6 | 0.0 | 0.00 | 0.00 | 0.00 | 100 | 1015.5 |
| 20260507073611 | 45 | 16 | 3.5 | 0.0 | 0.00 | 0.00 | 0.00 | 100 | 1015.4 |
| 20260507073137 | 44 | 312 | 3.5 | 0.0 | 0.00 | 0.00 | 0.00 | 100 | 1015.3 |
| 20260507072618 | 44 | 356 | 4.3 | 0.0 | 0.00 | 0.00 | 0.00 | 100 | 1015.3 |
| 20260507072143 | 44 | 19 | 9.6 | 0.0 | 0.00 | 0.00 | 0.00 | 100 | 1015.4 |
| 20260507071624 | 44 | 307 | 4.3 | 0.0 | 0.00 | 0.00 | 0.00 | 100 | 1015.3 |
| 20260507071105 | 43 | 16 | 5.2 | 0.0 | 0.00 | 0.00 | 0.00 | 100 | 1015.3 |
| 20260507070631 | 43 | 21 | 6.1 | 0.0 | 0.00 | 0.00 | 0.00 | 100 | 1015.2 |
| 20260507070110 | 43 | 24 | 7.8 | 0.0 | 0.00 | 0.00 | 0.00 | 100 | 1015.3 |
| 20260507065637 | 43 | 350 | 6.1 | 0.0 | 0.00 | 0.00 | 0.00 | 100 | 1015.2 |
| 20260507065117 | 42 | 348 | 7.8 | 0.0 | 0.00 | 0.00 | 0.00 | 100 | 1015.1 |
| 20260507064643 | 42 | 5 | 7.0 | 0.0 | 0.00 | 0.00 | 0.00 | 100 | 1015.1 |
| 20260507064123 | 42 | 34 | 9.6 | 0.0 | 0.00 | 0.00 | 0.00 | 100 | 1015.1 |
| 20260507063604 | 42 | 19 | 7.8 | 0.0 | 0.00 | 0.00 | 0.00 | 100 | 1015.1 |
| 20260507063130 | 42 | 24 | 11.3 | 0.0 | 0.00 | 0.00 | 0.00 | 100 | 1015.0 |
| 20260507062610 | 42 | 8 | 5.2 | 0.0 | 0.00 | 0.00 | 0.00 | 100 | 1014.9 |
| 20260507062136 | 42 | 34 | 7.8 | 0.0 | 0.00 | 0.00 | 0.00 | 100 | 1014.9 |
| 20260507061616 | 41 | 31 | 8.7 | 0.0 | 0.00 | 0.00 | 0.00 | 100 | 1014.9 |
| 20260507061142 | 41 | 30 | 6.1 | 0.0 | 0.00 | 0.00 | 0.00 | 100 | 1014.9 |
| 20260507060623 | 41 | 22 | 6.1 | 0.0 | 0.00 | 0.00 | 0.00 | 100 | 1014.9 |
| 20260507060103 | 41 | 33 | 7.8 | 0.0 | 0.00 | 0.00 | 0.00 | 100 | 1014.9 |
| 20260507055629 | 41 | 3 | 6.1 | 0.0 | 0.00 | 0.00 | 0.00 | 100 | 1014.9 |
| 20260507055110 | 41 | 10 | 7.0 | 0.0 | 0.00 | 0.00 | 0.00 | 100 | 1014.7 |
| 20260507054635 | 41 | 20 | 8.7 | 0.0 | 0.00 | 0.00 | 0.00 | 100 | 1014.7 |
| 20260507054115 | 41 | 5 | 6.1 | 0.0 | 0.00 | 0.00 | 0.00 | 100 | 1014.6 |
| 20260507053641 | 41 | 25 | 7.8 | 0.0 | 0.00 | 0.00 | 0.00 | 100 | 1014.5 |